Weather History for Pompano Beach, FL

Change the Weather History Date:

Saturday, February 16, 2013

  Actual Average Record
Temperature  
Mean Temperature 65 °F -  
Max Temperature 75 °F 79 °F 88 °F (1952)
Min Temperature 55 °F 59 °F 38 °F (1991)
Growing Degree Days 15 (Base 50)    
Moisture  
Dew Point 57 °F    
Average Humidity 77    
Maximum Humidity 100    
Minimum Humidity 40    
Precipitation  
Precipitation 0.01 in - - ()
Sea Level Pressure  
Sea Level Pressure 29.95 in    
Wind  
Wind Speed 9 mph (NW)    
Max Wind Speed 22 mph    
Max Gust Speed 31 mph    
Visibility 9 miles    
Events Rain    
Averages and records for this station are not official NWS values.
T = Trace of Precipitation, MM = Missing Value Source: NWS Daily Summary

Daily Weather History Graph

Daily Weather History Graph

Search for Another Location

Airport:

Trip Planner

Search our weather history database for the weather conditions in past years. The results will help you decide how hot, cold, wet, or windy it might be!

Date:

Astronomy

Feb. 16, 2013 Rise Set
Actual Time 6:55 AM EST 6:14 PM EST
Civil Twilight 6:31 AM EST 6:37 PM EST
Nautical Twilight 6:04 AM EST 7:04 PM EST
Astronomical Twilight 5:37 AM EST 7:31 PM EST
Moon 10:48 AM EST (2/16) No Moon Set
Length of Visible Light 12h 06m
Length of Day
11h 19m
Waxing Crescent, 39% of the Moon is Illuminated
Feb 16
Waxing Crescent
Feb 17
First Quarter
Feb 25
Full
Mar 4
Last Quarter
Mar 11
New

Hourly Weather History & Observations

Time (EST) Temp. Dew Point Humidity Pressure Visibility Wind Dir Wind Speed Gust Speed Precip Events Conditions
12:53 AM 64.0 °F 64.0 °F 100% 29.95 in 5.0 mi WNW 4.6 mph - N/A   Partly Cloudy
1:43 AM 64.4 °F 64.4 °F 100% 29.94 in 5.0 mi NW 5.8 mph - N/A   Overcast
1:53 AM 64.0 °F 64.0 °F 100% 29.95 in 6.0 mi NW 5.8 mph - N/A   Overcast
2:01 AM 64.4 °F 64.4 °F 100% 29.94 in 7.0 mi NW 5.8 mph - N/A   Overcast
2:12 AM 64.4 °F 64.4 °F 100% 29.94 in 7.0 mi NW 4.6 mph - N/A   Overcast
2:53 AM 64.0 °F 64.0 °F 100% 29.91 in 9.0 mi NW 4.6 mph - N/A   Overcast
3:53 AM 64.0 °F 64.0 °F 100% 29.91 in 10.0 mi WNW 6.9 mph - 0.00 in   Overcast
4:53 AM 64.0 °F 63.0 °F 96% 29.89 in 10.0 mi NNW 5.8 mph - N/A   Overcast
5:53 AM 64.0 °F 63.0 °F 96% 29.91 in 10.0 mi WNW 5.8 mph - 0.00 in Rain Light Rain
6:53 AM 64.0 °F 63.0 °F 96% 29.92 in 10.0 mi NW 6.9 mph - 0.00 in   Mostly Cloudy
7:53 AM 64.0 °F 63.0 °F 96% 29.93 in 10.0 mi NW 5.8 mph - N/A   Mostly Cloudy
8:53 AM 64.9 °F 64.0 °F 97% 29.94 in 10.0 mi NW 8.1 mph - N/A   Mostly Cloudy
9:53 AM 66.9 °F 62.1 °F 84% 29.95 in 10.0 mi NW 11.5 mph - N/A   Mostly Cloudy
10:28 AM 66.2 °F 62.6 °F 88% 29.95 in 10.0 mi WNW 9.2 mph - 0.01 in   Mostly Cloudy
10:53 AM 69.1 °F 62.1 °F 78% 29.95 in 10.0 mi WNW 9.2 mph - 0.01 in   Mostly Cloudy
11:53 AM 71.1 °F 60.1 °F 68% 29.94 in 10.0 mi WNW 13.8 mph - N/A   Partly Cloudy
12:53 PM 72.0 °F 57.9 °F 61% 29.92 in 10.0 mi WNW 16.1 mph - N/A   Clear
1:53 PM 75.0 °F 50.0 °F 41% 29.90 in 10.0 mi WNW 13.8 mph 25.3 mph N/A   Scattered Clouds
2:53 PM 72.0 °F 48.0 °F 43% 29.90 in 10.0 mi WNW 18.4 mph 26.5 mph N/A   Clear
3:53 PM 72.0 °F 46.0 °F 40% 29.91 in 10.0 mi WNW 21.9 mph 31.1 mph N/A   Clear
4:53 PM 69.1 °F 46.9 °F 45% 29.94 in 10.0 mi WNW 15.0 mph - N/A   Clear
5:53 PM 66.9 °F 45.0 °F 45% 29.96 in 10.0 mi WNW 16.1 mph 26.5 mph N/A   Clear
6:53 PM 64.9 °F 48.9 °F 56% 29.97 in 10.0 mi WNW 17.3 mph 25.3 mph N/A   Clear
7:53 PM 62.1 °F 50.0 °F 65% 30.00 in 10.0 mi WNW 16.1 mph - N/A   Clear
8:53 PM 60.1 °F 46.9 °F 62% 30.04 in 10.0 mi WNW 17.3 mph 26.5 mph N/A   Clear
9:53 PM 57.0 °F 45.0 °F 64% 30.06 in 10.0 mi WNW 16.1 mph 27.6 mph N/A   Clear
10:53 PM 55.9 °F 44.1 °F 64% 30.08 in 10.0 mi NW 15.0 mph 23.0 mph N/A   Clear
11:53 PM 55.0 °F 44.1 °F 67% 30.09 in 10.0 mi NW 15.0 mph - N/A   Clear